Content
SEND FEEDBACK

Daily
Averages
Monthly
Summary
United States of America

ASHEVILLE, NORTH CAROLINA


Home > North America > United States > North Carolina
Elevation: 682 meters     Latitude: 35 36N     Longitude: 082 32W

WEATHER
 
SELECT A DAY
Number of Records: 226,720;   Date Range: 1/1/95 - 9/16/14
 
SHARE

PRINT THIS DATA

[ ← Previous Day ]
WEATHER ALMANAC - 21 JANUARY, 2013
[ Next Day → ]
[ °F ]   °C
Weather ElementAverageHighLow
Temperature2.9 °C10.6 °C (1:54 pm)-4.4 °C (7:54 am)
Dewpoint-6.2 °C-1.1 °C (9:54 am)-11.7 °C (5:54 pm)
Humidity56.8 %91 % (7:54 am)29 % (5:54 pm)
Barometer1017.3 hPa1019.3 hPa (9:54 am)1014.9 hPa (1:54 pm)
Wind Speed11.1 km/h27.8 km/h (10:54 am)
Wind Gust40.7 km/h (10:54 am)
Weather ElementAverage
Visibility16.1 km
Wind DirectionS (183.5 °)

Weather ElementTotal
Precipitation---
Heating Degree Days15.2 (Base 18.3)
Averaged from 23 records on 21 January, 2013
WEATHER CONDITIONS BREAKOUT
WIND DIRECTION BREAKOUT
WEATHER BY HOUR - 21 JANUARY, 2013
[ °F ]   °C
Local TimeTemperatureDewpointHumidityBarometerVisibilityWind DirectionWind SpeedGust SpeedPrecipitationEventsConditions
1:54 AM-1.1 °C-2.8 °C88 %1019 hPa16.1 kmCalmClear
2:54 AM-1.7 °C-3.3 °C89 %1019 hPa16.1 kmNNW (340°)5.6 km/hClear
3:54 AM-2.2 °C-3.9 °C88 %1018.6 hPa16.1 kmCalmClear
4:54 AM-2.2 °C-3.9 °C88 %1018.3 hPa16.1 kmCalmClear
5:54 AM-2.8 °C-4.4 °C89 %1018.3 hPa16.1 kmCalmClear
6:54 AM-2.8 °C-4.4 °C89 %1018.3 hPa16.1 kmCalmClear
7:54 AM-4.4 °C-5.6 °C91 %1019 hPa16.1 kmNorth (350°)5.6 km/hClear
8:54 AM0 °C-1.7 °C88 %1019 hPa16.1 kmNNW (330°)5.6 km/hClear
9:54 AM2.8 °C-1.1 °C76 %1019.3 hPa16.1 kmNNW (340°)11.1 km/hClear
10:54 AM6.7 °C-2.8 °C51 %1018.6 hPa16.1 kmNNW (340°)27.8 km/h40.7 km/hClear
11:54 AM8.9 °C-3.9 °C41 %1017.6 hPa16.1 kmNNW (340°)22.2 km/hClear
12:54 PM10 °C-4.4 °C36 %1015.9 hPa16.1 kmNorth (350°)20.4 km/h31.5 km/hClear
1:54 PM10.6 °C-3.3 °C38 %1014.9 hPa16.1 kmNorth (360°)18.5 km/hClear
2:54 PM10.6 °C-4.4 °C35 %1015.2 hPa16.1 kmNorth (360°)24.1 km/h31.5 km/hClear
3:54 PM10 °C-5.6 °C33 %1014.9 hPa16.1 kmNorth (10°)13 km/h29.6 km/hClear
4:54 PM7.8 °C-8.9 °C30 %1015.6 hPa16.1 kmNorth (350°)22.2 km/hClear
5:54 PM5 °C-11.7 °C29 %1017.3 hPa16.1 kmNorth (350°)20.4 km/h35.2 km/hClear
6:54 PM3.9 °C-10.6 °C34 %1016.9 hPa16.1 kmVariable7.4 km/hClear
7:54 PM3.3 °C-10.6 °C36 %1017.3 hPa16.1 kmNorth (10°)11.1 km/hClear
8:54 PM2.8 °C-10.6 °C37 %1016.6 hPa16.1 kmVariable7.4 km/hClear
9:54 PM1.7 °C-10.6 °C40 %1016.9 hPa16.1 kmNNE (20°)7.4 km/hClear
10:54 PM1.1 °C-11.7 °C38 %1016.9 hPa16.1 kmNorth (10°)11.1 km/hClear
11:54 PM-0.6 °C-11.7 °C43 %1016.9 hPa16.1 kmNorth (360°)14.8 km/hClear
Hourly data recorded from KAVL, located 0 kilometers away from Asheville, North Carolina







STORIES FROM OUR PARTNERS